User: anonymous   Login
Location: Heisede
(52.2582°N, 9.8523°E)
Time: 09:29:46
(UTC+00:00)
Language:

Cosmos 2154 Rocket - Orbit

View from above orbital plane
View from above orbital plane
View from above satellite
View from above satellite

Ground track
Ground track

The orbit is defined by the following mean orbital elements,

1 21667U          26075.67635573 +.00000000 +00000-0 +39547-4 0 00009
2 21667  82.9083 150.0233 0020270 352.4980 161.1968 13.75281702    08
Epoch (UTC): 16 March 2026 16:13:57
Eccentricity: 0.0020270
inclination: 82.9083°
perigee height: 966 km
apogee height: 996 km
right ascension of ascending node: 150.0233°
argument of perigee: 352.4980°
revolutions per day: 13.75281702
mean anomaly at epoch: 161.1968°

The dashed part of the orbit path shows where the satellite is in the earth's shadow,  

DLR